Regional Weather Roundup
Issued by NWS

Home | Current Version | Previous Version | Text Only | Print | Product List | Glossary Off
Versions: 1 2 3 4 5 6 7 8 9 10 11 12 13 14 15 16 17 18 19 20 21 22 23 24 25 26 27 28 29 30 31 32 33 34 35 36 37 38 39 40 41 42 43 44 45 46 47 48 49 50

000
ASUS43 KMKX 011011
RWRWI

WISCONSIN REGIONAL WEATHER ROUNDUP
NATIONAL WEATHER SERVICE MILWAUKEE/SULLIVAN WI
500 AM CDT MON SEP 01 2014

NOTE: "FAIR" INDICATES FEW OR NO CLOUDS BELOW 12,000 FEET WITH NO
SIGNIFICANT WEATHER AND/OR OBSTRUCTIONS TO VISIBILITY.

WIZ001-002-006>008-014>016-023>028-011100-
NORTHWEST WISCONSIN

CITY           SKY/WX    TMP DP  RH WIND       PRES   REMARKS
SUPERIOR ARPT  RAIN      64  64  97 W5        29.57R
ASHLAND        LGT RAIN  65  64  97 S9        29.58S
HAYWARD        LGT RAIN  65  64  97 S8        29.62F
SIREN          LGT RAIN  65  64  96 SW13G22   29.63S
RICE LAKE      RAIN      65  63  93 SW10G17   29.67S
LADYSMITH      DRIZZLE   66  64  94 S9        29.68S
EAU CLAIRE     CLOUDY    65  64  97 CALM      29.65F
MENOMONIE      RAIN      65  64  94 S5        29.66F
NEW RICHMOND   RAIN      64  64  99 S7        29.64F
OSCEOLA        RAIN      65  65 100 SW7       29.66F
$$

WIZ003>005-009-010-017-018-011100-
NORTH CENTRAL WISCONSIN

CITY           SKY/WX    TMP DP  RH WIND       PRES   REMARKS
WOODRUFF       CLOUDY    65  62  87 SW14G24     N/A
RHINELANDER    MOCLDY    65  60  84 SW13G23   29.69R
EAGLE RIVER    MOCLDY    64  61  88 SW15G24   29.67R
LAND O LAKES   MOCLDY    67  64  90 SW12G22   29.66R
PHILLIPS       CLOUDY    64  63  95 SW13      29.67R
TOMAHAWK       DRIZZLE   64  60  88 SW3       29.70R
MEDFORD        DRIZZLE   63  60  90 SW5       29.69F
MERRILL        CLOUDY    66  61  82 SW5       29.70R
$$

WIZ029-030-035-036-043>047-011100-
CENTRAL WISCONSIN

CITY           SKY/WX    TMP DP  RH WIND       PRES   REMARKS
WAUSAU         CLOUDY    68  59  73 W8        29.67F
MOSINEE        LGT RAIN  64  61  88 S7        29.70F
MARSHFIELD     LGT RAIN  65  61  87 W5        29.69S
STEVENS POINT  CLOUDY    68  57  68 S7        29.70S
WAUPACA        CLOUDY    71  64  78 S6        29.70F
WAUTOMA        CLOUDY    71  60  68 S8        29.70F
WISC RAPIDS    LGT RAIN  70  58  65 S6        29.69F
CAMP DOUGLAS   CLOUDY    68  61  79 S5        29.66F
$$

WIZ011>013-019>022-031-037>040-048>050-011100-
NORTHEAST WISCONSIN

CITY           SKY/WX    TMP DP  RH WIND       PRES   REMARKS
ANTIGO         MOCLDY    65  64  96 SW8       29.70F
STURGEON BAY   MOCLDY    68  64  88 S14       29.73F
GREEN BAY      MOCLDY    71  69  93 S8        29.70F
MANITOWOC      PTCLDY    67  66  97 S8        29.74F FOG
APPLETON       MOCLDY    70  68  94 S12       29.72F
CLINTONVILLE   MOCLDY    70  68  94 S7        29.68F
OSHKOSH        MOCLDY    71  69  93 S10       29.72F
$$

WIZ032>034-041-042-053>061-011100-
SOUTHWEST WISCONSIN

CITY           SKY/WX    TMP DP  RH WIND       PRES   REMARKS
LA CROSSE      CLOUDY    67  61  81 SE5       29.63F
SPARTA         CLOUDY    68  57  66 SW7       29.67R
VIROQUA        FAIR      64  64  99 S8        29.67F
BOSCOBEL       CLOUDY    67  62  84 VRB6      29.66F
PRAIRIE DU CHI CLOUDY    66  61  84 CALM      29.64F
PLATTEVILLE    FAIR      65  63  92 SE9       29.69F
$$

WIZ056-057-062-063-064-067-068-011100-
SOUTH CENTRAL WISCONSIN

CITY           SKY/WX    TMP DP  RH WIND       PRES   REMARKS
BARABOO/DELLS  CLOUDY    68  58  71 S14G20    29.67F
LONE ROCK      LGT RAIN  74  61  63 S16G28    29.67F
WATERTOWN      MOCLDY    69  69 100 S3        29.77S
MADISON        CLOUDY    71  60  68 S8        29.75F
MIDDLETON      PTSUNNY   70  60  71 S10       29.74F
MONROE         CLOUDY    68  61  77 S5        29.76F
JANESVILLE     CLOUDY    72  68  88 NW3       29.78S
$$

WIZ051-052-058>065-066-070>072-011100-
SOUTHEAST WISCONSIN

CITY           SKY/WX    TMP DP  RH WIND       PRES   REMARKS
MILWAUKEE      MOCLDY    72  69  90 S12       29.77F
WAUKESHA       MOCLDY    68  66  94 CALM      29.79S FOG
MILWAUKEE/TIMM PTCLDY    70  66  88 W6        29.78S
RACINE         CLEAR     72  69  90 S8        29.79F
BURLINGTON     CLEAR     68  67  98 S3        29.78S
KENOSHA        CLEAR     72  70  93 S8        29.79F
FOND DU LAC    PTCLDY    71  67  87 S8        29.74F
SHEBOYGAN      PTCLDY    67  66  97 S6        29.75F FOG
WEST BEND      PTCLDY    70  64  83 S6        29.77F
JUNEAU         MOCLDY    69  68  97 S8        29.77F FOG
$$

LSZ147-162-011100-
LAKE SUPERIOR

STATION/POSITION TIME  TEMP    WIND        PRES    WAVE
                       AIR SEA DIR/SP/G            HT/PER
                 (UTC) (F)     (DEG/KT/KT) (MB)    (FT/S)
W MID LAKE BUOY  0950   62 58  190/  8/ 10  999.8F   2/ 4
DEVILS ISLAND    1000   63     230/ 10/ 12 1000.0R
PORT WING        0940   64     260/  9/ 12 1001.0F
SAXON HARBOR     0900   67     200/  4/  8 1001.7R
$$

LMZ867-665-643>646-011100-
LAKE MICHIGAN

STATION/POSITION TIME  TEMP    WIND        PRES    WAVE
                       AIR SEA DIR/SP/G            HT/PER
                 (UTC) (F)     (DEG/KT/KT) (MB)    (FT/S)
N MID LAKE BUOY  0950   68 65  180/ 17/ 19 1006.4F   2/ 3
NORTHPORT PIER   0900   67     160/  8/ 16 1006.8F
KEWAUNEE LAKESHO 0900   62     180/ 10/ 11 1006.8F
SHEBOYGAN LAKESH 1000   69 53  180/ 19/ 20 1007.2F
ATWATER BUOY     1000   70     160/ 10/ 10 1009.2F
MILWAUKEE LAKESH 0900   74     220/ 10/ 15   N/A
S MID LAKE BUOY  0950   72 70  180/ 16/ 17 1009.1F   3/ 4
KENOSHA   LAKESH 1000   70     180/  8/ 10 1008.5
$$

TC  - TEMPERATURE IN CELSIUS
VSB - VISIBILITY IN STATUTE MILES
WCI - WIND CHILL INDEX
HX  - HEAT INDEX




USA.gov is the U.S. government's official web portal to all federal, state and local government web resources and services.